Year,Month,Day,Hour,Minute,Value (Times are PST for temperature in C)
2019,04,27,00,00,7.90
2019,04,27,00,01,7.90
2019,04,27,00,02,7.90
2019,04,27,00,03,8.00
2019,04,27,00,04,8.00
2019,04,27,00,05,8.00
2019,04,27,00,06,8.10
2019,04,27,00,07,8.10
2019,04,27,00,08,8.20
2019,04,27,00,09,8.20
2019,04,27,00,10,8.30
2019,04,27,00,11,8.20
2019,04,27,00,12,8.20
2019,04,27,00,13,8.20
2019,04,27,00,14,8.20
2019,04,27,00,15,8.20
2019,04,27,00,16,8.10
2019,04,27,00,17,8.10
2019,04,27,00,18,8.10
2019,04,27,00,19,8.00
2019,04,27,00,20,8.00
2019,04,27,00,21,8.00
2019,04,27,00,22,7.90
2019,04,27,00,23,7.90
2019,04,27,00,24,7.90
2019,04,27,00,25,7.90
2019,04,27,00,26,7.90
2019,04,27,00,27,7.90
2019,04,27,00,28,7.90
2019,04,27,00,29,7.90
2019,04,27,00,30,7.90
2019,04,27,00,31,7.90
2019,04,27,00,32,7.80
2019,04,27,00,33,7.80
2019,04,27,00,34,7.80
2019,04,27,00,35,7.80
2019,04,27,00,36,7.80
2019,04,27,00,37,7.80
2019,04,27,00,38,7.70
2019,04,27,00,39,7.70
2019,04,27,00,40,7.70
2019,04,27,00,41,7.60
2019,04,27,00,42,7.60
2019,04,27,00,43,7.60
2019,04,27,00,44,7.60
2019,04,27,00,45,7.60
2019,04,27,00,46,7.60
2019,04,27,00,47,7.60
2019,04,27,00,48,7.60
2019,04,27,00,49,7.60
2019,04,27,00,50,7.60
2019,04,27,00,51,7.60
2019,04,27,00,52,7.60
2019,04,27,00,53,7.50
2019,04,27,00,54,7.50
2019,04,27,00,55,7.50
2019,04,27,00,56,7.50
2019,04,27,00,57,7.40
2019,04,27,00,58,7.40
2019,04,27,00,59,7.30
2019,04,27,01,00,7.30
2019,04,27,01,01,7.30
2019,04,27,01,02,7.30
2019,04,27,01,03,7.30
2019,04,27,01,04,7.30
2019,04,27,01,05,7.30
2019,04,27,01,06,7.30
2019,04,27,01,07,7.30
2019,04,27,01,08,7.30
2019,04,27,01,09,7.30
2019,04,27,01,10,7.30
2019,04,27,01,11,7.30
2019,04,27,01,12,7.20
2019,04,27,01,13,7.20
2019,04,27,01,14,7.20
2019,04,27,01,15,7.20
2019,04,27,01,16,7.20
2019,04,27,01,17,7.30
2019,04,27,01,18,7.30
2019,04,27,01,19,7.30
2019,04,27,01,20,7.30
2019,04,27,01,21,7.30
2019,04,27,01,22,7.30
2019,04,27,01,23,7.30
2019,04,27,01,24,7.30
2019,04,27,01,25,7.30
2019,04,27,01,26,7.30
2019,04,27,01,27,7.30
2019,04,27,01,28,7.30
2019,04,27,01,29,7.40
2019,04,27,01,30,7.40
2019,04,27,01,31,7.40
2019,04,27,01,32,7.40
2019,04,27,01,33,7.40
2019,04,27,01,34,7.40
2019,04,27,01,35,7.30
2019,04,27,01,36,7.30
2019,04,27,01,37,7.30
2019,04,27,01,38,7.20
2019,04,27,01,39,7.20
2019,04,27,01,40,7.20
2019,04,27,01,41,7.20
2019,04,27,01,42,7.30
2019,04,27,01,43,7.30
2019,04,27,01,44,7.30
2019,04,27,01,45,7.20
2019,04,27,01,46,7.20
2019,04,27,01,47,7.20
2019,04,27,01,48,7.20
2019,04,27,01,49,7.30
2019,04,27,01,50,7.20
2019,04,27,01,51,7.20
2019,04,27,01,52,7.20
2019,04,27,01,53,7.20
2019,04,27,01,54,7.20
2019,04,27,01,55,7.20
2019,04,27,01,56,7.10
2019,04,27,01,57,7.10
2019,04,27,01,58,7.10
2019,04,27,01,59,7.10
2019,04,27,02,00,7.10
2019,04,27,02,01,7.00
2019,04,27,02,02,7.00
2019,04,27,02,03,7.00
2019,04,27,02,04,7.00
2019,04,27,02,05,6.90
2019,04,27,02,06,6.90
2019,04,27,02,07,6.90
2019,04,27,02,08,6.90
2019,04,27,02,09,6.90
2019,04,27,02,10,7.00
2019,04,27,02,11,7.00
2019,04,27,02,12,7.00
2019,04,27,02,13,7.00
2019,04,27,02,14,7.00
2019,04,27,02,15,7.00
2019,04,27,02,16,7.00
2019,04,27,02,17,7.00
2019,04,27,02,18,7.00
2019,04,27,02,19,7.00
2019,04,27,02,20,7.00
2019,04,27,02,21,7.00
2019,04,27,02,22,7.00
2019,04,27,02,23,7.00
2019,04,27,02,24,6.90
2019,04,27,02,25,6.90
2019,04,27,02,26,6.90
2019,04,27,02,27,6.90
2019,04,27,02,28,6.90
2019,04,27,02,29,6.90
2019,04,27,02,30,6.90
2019,04,27,02,31,6.90
2019,04,27,02,32,6.80
2019,04,27,02,33,6.80
2019,04,27,02,34,6.80
2019,04,27,02,35,6.80
2019,04,27,02,36,6.80
2019,04,27,02,37,6.80
2019,04,27,02,38,6.80
2019,04,27,02,39,6.80
2019,04,27,02,40,6.80
2019,04,27,02,41,6.80
2019,04,27,02,42,6.80
2019,04,27,02,43,6.80
2019,04,27,02,44,6.80
2019,04,27,02,45,6.70
2019,04,27,02,46,6.70
2019,04,27,02,47,6.70
2019,04,27,02,48,6.70
2019,04,27,02,49,6.70
2019,04,27,02,50,6.70
2019,04,27,02,51,6.70
2019,04,27,02,52,6.80
2019,04,27,02,53,6.80
2019,04,27,02,54,6.80
2019,04,27,02,55,6.80
2019,04,27,02,56,6.80
2019,04,27,02,57,6.80
2019,04,27,02,58,6.80
2019,04,27,02,59,6.80
2019,04,27,03,00,6.80
2019,04,27,03,01,6.80
2019,04,27,03,02,6.70
2019,04,27,03,03,6.70
2019,04,27,03,04,6.70
2019,04,27,03,05,6.70
2019,04,27,03,06,6.70
2019,04,27,03,07,6.70
2019,04,27,03,08,6.70
2019,04,27,03,09,6.70
2019,04,27,03,10,6.70
2019,04,27,03,11,6.70
2019,04,27,03,12,6.70
2019,04,27,03,13,6.70
2019,04,27,03,14,6.70
2019,04,27,03,15,6.70
2019,04,27,03,16,6.80
2019,04,27,03,17,6.80
2019,04,27,03,18,6.80
2019,04,27,03,19,6.80
2019,04,27,03,20,6.80
2019,04,27,03,21,6.80
2019,04,27,03,22,6.80
2019,04,27,03,23,6.80
2019,04,27,03,24,6.70
2019,04,27,03,25,6.70
2019,04,27,03,26,6.60
2019,04,27,03,27,6.60
2019,04,27,03,28,6.50
2019,04,27,03,29,6.40
2019,04,27,03,30,6.30
2019,04,27,03,31,6.30
2019,04,27,03,32,6.20
2019,04,27,03,33,6.20
2019,04,27,03,34,6.10
2019,04,27,03,35,6.10
2019,04,27,03,36,6.10
2019,04,27,03,37,6.00
2019,04,27,03,38,6.00
2019,04,27,03,39,6.00
2019,04,27,03,40,6.00
2019,04,27,03,41,6.00
2019,04,27,03,42,6.00
2019,04,27,03,43,6.00
2019,04,27,03,44,6.00
2019,04,27,03,45,6.00
2019,04,27,03,46,5.90
2019,04,27,03,47,5.90
2019,04,27,03,48,5.90
2019,04,27,03,49,5.90
2019,04,27,03,50,5.80
2019,04,27,03,51,5.90
2019,04,27,03,52,5.90
2019,04,27,03,53,5.90
2019,04,27,03,54,5.90
2019,04,27,03,55,5.90
2019,04,27,03,56,5.80
2019,04,27,03,57,5.80
2019,04,27,03,58,5.90
2019,04,27,03,59,5.90
2019,04,27,04,00,5.90
2019,04,27,04,01,5.80
2019,04,27,04,02,5.80
2019,04,27,04,03,5.70
2019,04,27,04,04,5.70
2019,04,27,04,05,5.60
2019,04,27,04,06,5.60
2019,04,27,04,07,5.50
2019,04,27,04,08,5.50
2019,04,27,04,09,5.40
2019,04,27,04,10,5.40
2019,04,27,04,11,5.40
2019,04,27,04,12,5.40
2019,04,27,04,13,5.40
2019,04,27,04,14,5.40
2019,04,27,04,15,5.30
2019,04,27,04,16,5.30
2019,04,27,04,17,5.30
2019,04,27,04,18,5.30
2019,04,27,04,19,5.30
2019,04,27,04,20,5.20
2019,04,27,04,21,5.20
2019,04,27,04,22,5.20
2019,04,27,04,23,5.10
2019,04,27,04,24,5.10
2019,04,27,04,25,5.00
2019,04,27,04,26,5.00
2019,04,27,04,27,4.90
2019,04,27,04,28,4.90
2019,04,27,04,29,4.80
2019,04,27,04,30,4.80
2019,04,27,04,31,4.70
2019,04,27,04,32,4.60
2019,04,27,04,33,4.60
2019,04,27,04,34,4.50
2019,04,27,04,35,4.50
2019,04,27,04,36,4.40
2019,04,27,04,37,4.40
2019,04,27,04,38,4.30
2019,04,27,04,39,4.30
2019,04,27,04,40,4.20
2019,04,27,04,41,4.20
2019,04,27,04,42,4.20
2019,04,27,04,43,4.20
2019,04,27,04,44,4.10
2019,04,27,04,45,4.10
2019,04,27,04,46,4.00
2019,04,27,04,47,4.00
2019,04,27,04,48,3.90
2019,04,27,04,49,3.90
2019,04,27,04,50,3.80
2019,04,27,04,51,3.80
2019,04,27,04,52,3.80
2019,04,27,04,53,3.80
2019,04,27,04,54,3.80
2019,04,27,04,55,3.80
2019,04,27,04,56,3.80
2019,04,27,04,57,3.80
2019,04,27,04,58,3.70
2019,04,27,04,59,3.70
2019,04,27,05,00,3.70
2019,04,27,05,01,3.70
2019,04,27,05,02,3.70
2019,04,27,05,03,3.60
2019,04,27,05,04,3.60
2019,04,27,05,05,3.60
2019,04,27,05,06,3.60
2019,04,27,05,07,3.50
2019,04,27,05,08,3.50
2019,04,27,05,09,3.50
2019,04,27,05,10,3.40
2019,04,27,05,11,3.40
2019,04,27,05,12,3.40
2019,04,27,05,13,3.40
2019,04,27,05,14,3.30
2019,04,27,05,15,3.30
2019,04,27,05,16,3.30
2019,04,27,05,17,3.30
2019,04,27,05,18,3.20
2019,04,27,05,19,3.20
2019,04,27,05,20,3.20
2019,04,27,05,21,3.10
2019,04,27,05,22,3.10
2019,04,27,05,23,3.10
2019,04,27,05,24,3.10
2019,04,27,05,25,3.00
2019,04,27,05,26,3.10
2019,04,27,05,27,3.10
2019,04,27,05,28,3.10
2019,04,27,05,29,3.10
2019,04,27,05,30,3.10
2019,04,27,05,31,3.10
2019,04,27,05,32,3.10
2019,04,27,05,33,3.00
2019,04,27,05,34,3.00
2019,04,27,05,35,3.00
2019,04,27,05,36,3.00
2019,04,27,05,37,2.90
2019,04,27,05,38,3.00
2019,04,27,05,39,3.00
2019,04,27,05,40,3.00
2019,04,27,05,41,3.00
2019,04,27,05,42,2.90
2019,04,27,05,43,2.90
2019,04,27,05,44,2.90
2019,04,27,05,45,2.90
2019,04,27,05,46,2.80
2019,04,27,05,47,2.80
2019,04,27,05,48,2.80
2019,04,27,05,49,2.80
2019,04,27,05,50,2.70
2019,04,27,05,51,2.70
2019,04,27,05,52,2.70
2019,04,27,05,53,2.70
2019,04,27,05,54,2.60
2019,04,27,05,55,2.60
2019,04,27,05,56,2.60
2019,04,27,05,57,2.60
2019,04,27,05,58,2.50
2019,04,27,05,59,2.50
2019,04,27,06,00,2.60
2019,04,27,06,01,2.50
2019,04,27,06,02,2.50
2019,04,27,06,03,2.50
2019,04,27,06,04,2.40
2019,04,27,06,05,2.40
2019,04,27,06,06,2.40
2019,04,27,06,07,2.40
2019,04,27,06,08,2.30
2019,04,27,06,09,2.30
2019,04,27,06,10,2.30
2019,04,27,06,11,2.30
2019,04,27,06,12,2.20
2019,04,27,06,13,2.20
2019,04,27,06,14,2.20
2019,04,27,06,15,2.20
2019,04,27,06,16,2.20
2019,04,27,06,17,2.20
2019,04,27,06,18,2.20
2019,04,27,06,19,2.10
2019,04,27,06,20,2.10
2019,04,27,06,21,2.10
2019,04,27,06,22,2.10
2019,04,27,06,23,2.10
2019,04,27,06,24,2.10
2019,04,27,06,25,2.10
2019,04,27,06,26,2.10
2019,04,27,06,27,2.10
2019,04,27,06,28,2.00
2019,04,27,06,29,2.00
2019,04,27,06,30,2.00
2019,04,27,06,31,2.00
2019,04,27,06,32,1.90
2019,04,27,06,33,1.90
2019,04,27,06,34,1.90
2019,04,27,06,35,1.90
2019,04,27,06,36,1.90
2019,04,27,06,37,1.90
2019,04,27,06,38,1.90
2019,04,27,06,39,1.90
2019,04,27,06,40,1.90
2019,04,27,06,41,1.90
2019,04,27,06,42,1.90
2019,04,27,06,43,1.90
2019,04,27,06,44,1.90
2019,04,27,06,45,1.90
2019,04,27,06,46,1.90
2019,04,27,06,47,1.90
2019,04,27,06,48,1.90
2019,04,27,06,49,1.90
2019,04,27,06,50,1.90
2019,04,27,06,51,1.90
2019,04,27,06,52,1.90
2019,04,27,06,53,1.90
2019,04,27,06,54,1.90
2019,04,27,06,55,1.90
2019,04,27,06,56,1.90
2019,04,27,06,57,1.90
2019,04,27,06,58,1.90
2019,04,27,06,59,1.90
2019,04,27,07,00,1.90
2019,04,27,07,01,1.90
2019,04,27,07,02,1.90
2019,04,27,07,03,2.00
2019,04,27,07,04,2.00
2019,04,27,07,05,2.10
2019,04,27,07,06,2.10
2019,04,27,07,07,2.10
2019,04,27,07,08,2.10
2019,04,27,07,09,2.20
2019,04,27,07,10,2.20
2019,04,27,07,11,2.20
2019,04,27,07,12,2.20
2019,04,27,07,13,2.20
2019,04,27,07,14,2.20
2019,04,27,07,15,2.20
2019,04,27,07,16,2.30
2019,04,27,07,17,2.30
2019,04,27,07,18,2.30
2019,04,27,07,19,2.30
2019,04,27,07,20,2.30
2019,04,27,07,21,2.30
2019,04,27,07,22,2.40
2019,04,27,07,23,2.40
2019,04,27,07,24,2.50
2019,04,27,07,25,2.50
2019,04,27,07,26,2.60
2019,04,27,07,27,2.60
2019,04,27,07,28,2.60
2019,04,27,07,29,2.70
2019,04,27,07,30,2.70
2019,04,27,07,31,2.80
2019,04,27,07,32,2.80
2019,04,27,07,33,2.90
2019,04,27,07,34,2.90
2019,04,27,07,35,3.00
2019,04,27,07,36,3.10
2019,04,27,07,37,3.10
2019,04,27,07,38,3.20
2019,04,27,07,39,3.30
2019,04,27,07,40,3.30
2019,04,27,07,41,3.40
2019,04,27,07,42,3.40
2019,04,27,07,43,3.40
2019,04,27,07,44,3.50
2019,04,27,07,45,3.50
2019,04,27,07,46,3.60
2019,04,27,07,47,3.60
2019,04,27,07,48,3.70
2019,04,27,07,49,3.70
2019,04,27,07,50,3.80
2019,04,27,07,51,3.80
2019,04,27,07,52,3.80
2019,04,27,07,53,3.90
2019,04,27,07,54,3.90
2019,04,27,07,55,4.00
2019,04,27,07,56,4.00
2019,04,27,07,57,4.10
2019,04,27,07,58,4.20
2019,04,27,07,59,4.20
2019,04,27,08,00,4.30
2019,04,27,08,01,4.30
2019,04,27,08,02,4.40
2019,04,27,08,03,4.50
2019,04,27,08,04,4.60
2019,04,27,08,05,4.70
2019,04,27,08,06,4.80
2019,04,27,08,07,4.80
2019,04,27,08,08,4.90
2019,04,27,08,09,5.00
2019,04,27,08,10,5.10
2019,04,27,08,11,5.10
2019,04,27,08,12,5.20
2019,04,27,08,13,5.30
2019,04,27,08,14,5.40
2019,04,27,08,15,5.40
2019,04,27,08,16,5.50
2019,04,27,08,17,5.60
2019,04,27,08,18,5.60
2019,04,27,08,19,5.70
2019,04,27,08,20,5.80
2019,04,27,08,21,5.90
2019,04,27,08,22,6.00
2019,04,27,08,23,6.00
2019,04,27,08,24,6.10
2019,04,27,08,25,6.10
2019,04,27,08,26,6.20
2019,04,27,08,27,6.30
2019,04,27,08,28,6.40
2019,04,27,08,29,6.50
2019,04,27,08,30,6.60
2019,04,27,08,31,6.70
2019,04,27,08,32,6.80
2019,04,27,08,33,6.90
2019,04,27,08,34,7.00
2019,04,27,08,35,7.00
2019,04,27,08,36,7.00
2019,04,27,08,37,7.10
2019,04,27,08,38,7.10
2019,04,27,08,39,7.10
2019,04,27,08,40,7.20
2019,04,27,08,41,7.20
2019,04,27,08,42,7.30
2019,04,27,08,43,7.30
2019,04,27,08,44,7.30
2019,04,27,08,45,7.30
2019,04,27,08,46,7.30
2019,04,27,08,47,7.30
2019,04,27,08,48,7.30
2019,04,27,08,49,7.30
2019,04,27,08,50,7.30
2019,04,27,08,51,7.30
2019,04,27,08,52,7.40
2019,04,27,08,53,7.40
2019,04,27,08,54,7.40
2019,04,27,08,55,7.40
2019,04,27,08,56,7.50
2019,04,27,08,57,7.50
2019,04,27,08,58,7.50
2019,04,27,08,59,7.50
2019,04,27,09,00,7.50
2019,04,27,09,01,7.50
2019,04,27,09,02,7.40
2019,04,27,09,03,7.40
2019,04,27,09,04,7.40
2019,04,27,09,05,7.40
2019,04,27,09,06,7.40
2019,04,27,09,07,7.40
2019,04,27,09,08,7.40
2019,04,27,09,09,7.50
2019,04,27,09,10,7.50
2019,04,27,09,11,7.60
2019,04,27,09,12,7.60
2019,04,27,09,13,7.60
2019,04,27,09,14,7.60
2019,04,27,09,15,7.60
2019,04,27,09,16,7.60
2019,04,27,09,17,7.70
2019,04,27,09,18,7.70
2019,04,27,09,19,7.70
2019,04,27,09,20,7.80
2019,04,27,09,21,7.80
2019,04,27,09,22,7.90
2019,04,27,09,23,8.00
2019,04,27,09,24,8.10
2019,04,27,09,25,8.20
2019,04,27,09,26,8.20
2019,04,27,09,27,8.30
2019,04,27,09,28,8.40
2019,04,27,09,29,8.50
2019,04,27,09,30,8.50
2019,04,27,09,31,8.60
2019,04,27,09,32,8.60
2019,04,27,09,33,8.70
2019,04,27,09,34,8.70
2019,04,27,09,35,8.80
2019,04,27,09,36,8.80
2019,04,27,09,37,8.80
2019,04,27,09,38,8.90
2019,04,27,09,39,8.90
2019,04,27,09,40,8.90
2019,04,27,09,41,9.00
2019,04,27,09,42,9.10
2019,04,27,09,43,9.10
2019,04,27,09,44,9.20
2019,04,27,09,45,9.20
2019,04,27,09,46,9.20
2019,04,27,09,47,9.20
2019,04,27,09,48,9.20
2019,04,27,09,49,9.20
2019,04,27,09,50,9.30
2019,04,27,09,51,9.40
2019,04,27,09,52,9.50
2019,04,27,09,53,9.50
2019,04,27,09,54,9.60
2019,04,27,09,55,9.70
2019,04,27,09,56,9.70
2019,04,27,09,57,9.70
2019,04,27,09,58,9.70
2019,04,27,09,59,9.70
2019,04,27,10,00,9.70
2019,04,27,10,01,9.70
2019,04,27,10,02,9.70
2019,04,27,10,03,9.70
2019,04,27,10,04,9.70
2019,04,27,10,05,9.70
2019,04,27,10,06,9.70
2019,04,27,10,07,9.70
2019,04,27,10,08,9.70
2019,04,27,10,09,9.70
2019,04,27,10,10,9.70
2019,04,27,10,11,9.80
2019,04,27,10,12,9.90
2019,04,27,10,13,10.00
2019,04,27,10,14,10.10
2019,04,27,10,15,10.10
2019,04,27,10,16,10.10
2019,04,27,10,17,10.10
2019,04,27,10,18,10.10
2019,04,27,10,19,10.10
2019,04,27,10,20,10.10
2019,04,27,10,21,10.20
2019,04,27,10,22,10.30
2019,04,27,10,23,10.30
2019,04,27,10,24,10.40
2019,04,27,10,25,10.50
2019,04,27,10,26,10.50
2019,04,27,10,27,10.50
2019,04,27,10,28,10.50
2019,04,27,10,29,10.50
2019,04,27,10,30,10.60
2019,04,27,10,31,10.50
2019,04,27,10,32,10.50
2019,04,27,10,33,10.50
2019,04,27,10,34,10.50
2019,04,27,10,35,10.50
2019,04,27,10,36,10.60
2019,04,27,10,37,10.50
2019,04,27,10,38,10.50
2019,04,27,10,39,10.40
2019,04,27,10,40,10.30
2019,04,27,10,41,10.20
2019,04,27,10,42,10.20
2019,04,27,10,43,10.20
2019,04,27,10,44,10.20
2019,04,27,10,45,10.20
2019,04,27,10,46,10.20
2019,04,27,10,47,10.20
2019,04,27,10,48,10.30
2019,04,27,10,49,10.40
2019,04,27,10,50,10.40
2019,04,27,10,51,10.40
2019,04,27,10,52,10.50
2019,04,27,10,53,10.60
2019,04,27,10,54,10.70
2019,04,27,10,55,10.80
2019,04,27,10,56,10.80
2019,04,27,10,57,10.90
2019,04,27,10,58,10.90
2019,04,27,10,59,10.90
2019,04,27,11,00,10.90
2019,04,27,11,01,10.80
2019,04,27,11,02,10.70
2019,04,27,11,03,10.60
2019,04,27,11,04,10.50
2019,04,27,11,05,10.50
2019,04,27,11,06,10.50
2019,04,27,11,07,10.60
2019,04,27,11,08,10.50
2019,04,27,11,09,10.50
2019,04,27,11,10,10.50
2019,04,27,11,11,10.50
2019,04,27,11,12,10.50
2019,04,27,11,13,10.50
2019,04,27,11,14,10.50
2019,04,27,11,15,10.50
2019,04,27,11,16,10.50
2019,04,27,11,17,10.50
2019,04,27,11,18,10.40
2019,04,27,11,19,10.40
2019,04,27,11,20,10.40
2019,04,27,11,21,10.50
2019,04,27,11,22,10.50
2019,04,27,11,23,10.50
2019,04,27,11,24,10.60
2019,04,27,11,25,10.60
2019,04,27,11,26,10.70
2019,04,27,11,27,10.70
2019,04,27,11,28,10.80
2019,04,27,11,29,10.90
2019,04,27,11,30,10.90
2019,04,27,11,31,10.90
2019,04,27,11,32,10.90
2019,04,27,11,33,11.00
2019,04,27,11,34,11.00
2019,04,27,11,35,11.00
2019,04,27,11,36,11.10
2019,04,27,11,37,11.10
2019,04,27,11,38,11.20
2019,04,27,11,39,11.20
2019,04,27,11,40,11.30
2019,04,27,11,41,11.40
2019,04,27,11,42,11.40
2019,04,27,11,43,11.40
2019,04,27,11,44,11.40
2019,04,27,11,45,11.40
2019,04,27,11,46,11.40
2019,04,27,11,47,11.40
2019,04,27,11,48,11.30
2019,04,27,11,49,11.30
2019,04,27,11,50,11.40
2019,04,27,11,51,11.40
2019,04,27,11,52,11.50
2019,04,27,11,53,11.50
2019,04,27,11,54,11.60
2019,04,27,11,55,11.60
2019,04,27,11,56,11.70
2019,04,27,11,57,11.70
2019,04,27,11,58,11.80
2019,04,27,11,59,11.80
2019,04,27,12,00,11.80
2019,04,27,12,01,11.90
2019,04,27,12,02,11.90
2019,04,27,12,03,12.00
2019,04,27,12,04,12.00
2019,04,27,12,05,12.10
2019,04,27,12,06,12.10
2019,04,27,12,07,12.10
2019,04,27,12,08,12.10
2019,04,27,12,09,12.20
2019,04,27,12,10,12.20
2019,04,27,12,11,12.10
2019,04,27,12,12,11.90
2019,04,27,12,13,11.90
2019,04,27,12,14,11.80
2019,04,27,12,15,11.80
2019,04,27,12,16,11.70
2019,04,27,12,17,11.70
2019,04,27,12,18,11.60
2019,04,27,12,19,11.60
2019,04,27,12,20,11.50
2019,04,27,12,21,11.50
2019,04,27,12,22,11.50
2019,04,27,12,23,11.50
2019,04,27,12,24,11.60
2019,04,27,12,25,11.70
2019,04,27,12,26,11.80
2019,04,27,12,27,11.90
2019,04,27,12,28,12.00
2019,04,27,12,29,12.00
2019,04,27,12,30,11.90
2019,04,27,12,31,11.90
2019,04,27,12,32,11.80
2019,04,27,12,33,11.70
2019,04,27,12,34,11.70
2019,04,27,12,35,11.70
2019,04,27,12,36,11.70
2019,04,27,12,37,11.70
2019,04,27,12,38,11.70
2019,04,27,12,39,11.80
2019,04,27,12,40,11.80
2019,04,27,12,41,11.80
2019,04,27,12,42,11.80
2019,04,27,12,43,11.80
2019,04,27,12,44,11.70
2019,04,27,12,45,11.60
2019,04,27,12,46,11.50
2019,04,27,12,47,11.40
2019,04,27,12,48,11.40
2019,04,27,12,49,11.30
2019,04,27,12,50,11.20
2019,04,27,12,51,11.10
2019,04,27,12,52,11.00
2019,04,27,12,53,11.00
2019,04,27,12,54,10.90
2019,04,27,12,55,10.90
2019,04,27,12,56,10.90
2019,04,27,12,57,10.90
2019,04,27,12,58,10.90
2019,04,27,12,59,10.90
2019,04,27,13,00,10.90
2019,04,27,13,01,11.00
2019,04,27,13,02,11.10
2019,04,27,13,03,11.30
2019,04,27,13,04,11.40
2019,04,27,13,05,11.50
2019,04,27,13,06,11.60
2019,04,27,13,07,11.70
2019,04,27,13,08,11.80
2019,04,27,13,09,11.80
2019,04,27,13,10,11.90
2019,04,27,13,11,12.00
2019,04,27,13,12,12.00
2019,04,27,13,13,12.00
2019,04,27,13,14,12.10
2019,04,27,13,15,12.10
2019,04,27,13,16,12.10
2019,04,27,13,17,12.20
2019,04,27,13,18,12.30
2019,04,27,13,19,12.30
2019,04,27,13,20,12.40
2019,04,27,13,21,12.50
2019,04,27,13,22,12.50
2019,04,27,13,23,12.50
2019,04,27,13,24,12.40
2019,04,27,13,25,12.30
2019,04,27,13,26,12.30
2019,04,27,13,27,12.30
2019,04,27,13,28,12.20
2019,04,27,13,29,12.10
2019,04,27,13,30,12.00
2019,04,27,13,31,11.90
2019,04,27,13,32,11.90
2019,04,27,13,33,11.90
2019,04,27,13,34,11.90
2019,04,27,13,35,11.90
2019,04,27,13,36,11.80
2019,04,27,13,37,11.80
2019,04,27,13,38,11.90
2019,04,27,13,39,12.00
2019,04,27,13,40,12.10
2019,04,27,13,41,12.20
2019,04,27,13,42,12.20
2019,04,27,13,43,12.30
2019,04,27,13,44,12.30
2019,04,27,13,45,12.30
2019,04,27,13,46,12.40
2019,04,27,13,47,12.50
2019,04,27,13,48,12.50
2019,04,27,13,49,12.60
2019,04,27,13,50,12.60
2019,04,27,13,51,12.60
2019,04,27,13,52,12.50
2019,04,27,13,53,12.50
2019,04,27,13,54,12.40
2019,04,27,13,55,12.30
2019,04,27,13,56,12.20
2019,04,27,13,57,12.10
2019,04,27,13,58,11.90
2019,04,27,13,59,11.80
2019,04,27,14,00,11.80
2019,04,27,14,01,11.60
2019,04,27,14,02,11.60
2019,04,27,14,03,11.60
2019,04,27,14,04,11.50
2019,04,27,14,05,11.40
2019,04,27,14,06,11.40
2019,04,27,14,07,11.40
2019,04,27,14,08,11.50
2019,04,27,14,09,11.50
2019,04,27,14,10,11.40
2019,04,27,14,11,11.40
2019,04,27,14,12,11.40
2019,04,27,14,13,11.40
2019,04,27,14,14,11.30
2019,04,27,14,15,11.40
2019,04,27,14,16,11.40
2019,04,27,14,17,11.30
2019,04,27,14,18,11.30
2019,04,27,14,19,11.30
2019,04,27,14,20,11.30
2019,04,27,14,21,11.40
2019,04,27,14,22,11.50
2019,04,27,14,23,11.50
2019,04,27,14,24,11.60
2019,04,27,14,25,11.70
2019,04,27,14,26,11.70
2019,04,27,14,27,11.70
2019,04,27,14,28,11.70
2019,04,27,14,29,11.70
2019,04,27,14,30,11.60
2019,04,27,14,31,11.70
2019,04,27,14,32,11.70
2019,04,27,14,33,11.80
2019,04,27,14,34,11.80
2019,04,27,14,35,11.90
2019,04,27,14,36,11.90
2019,04,27,14,37,12.00
2019,04,27,14,38,12.10
2019,04,27,14,39,12.20
2019,04,27,14,40,12.30
2019,04,27,14,41,12.40
2019,04,27,14,42,12.40
2019,04,27,14,43,12.50
2019,04,27,14,44,12.60
2019,04,27,14,45,12.70
2019,04,27,14,46,12.80
2019,04,27,14,47,12.90
2019,04,27,14,48,13.00
2019,04,27,14,49,13.10
2019,04,27,14,50,13.10
2019,04,27,14,51,13.10
2019,04,27,14,52,13.10
2019,04,27,14,53,13.00
2019,04,27,14,54,13.00
2019,04,27,14,55,13.10
2019,04,27,14,56,13.10
2019,04,27,14,57,13.10
2019,04,27,14,58,13.10
2019,04,27,14,59,13.10
2019,04,27,15,00,13.00
2019,04,27,15,01,12.90
2019,04,27,15,02,12.70
2019,04,27,15,03,12.60
2019,04,27,15,04,12.60
2019,04,27,15,05,12.60
2019,04,27,15,06,12.50
2019,04,27,15,07,12.40
2019,04,27,15,08,12.50
2019,04,27,15,09,12.50
2019,04,27,15,10,12.60
2019,04,27,15,11,12.70
2019,04,27,15,12,12.80
2019,04,27,15,13,12.90
2019,04,27,15,14,13.00
2019,04,27,15,15,13.00
2019,04,27,15,16,13.10
2019,04,27,15,17,13.00
2019,04,27,15,18,13.00
2019,04,27,15,19,13.10
2019,04,27,15,20,13.10
2019,04,27,15,21,13.30
2019,04,27,15,22,13.30
2019,04,27,15,23,13.30
2019,04,27,15,24,13.30
2019,04,27,15,25,13.30
2019,04,27,15,26,13.40
2019,04,27,15,27,13.50
2019,04,27,15,28,13.60
2019,04,27,15,29,13.70
2019,04,27,15,30,13.70
2019,04,27,15,31,13.70
2019,04,27,15,32,13.70
2019,04,27,15,33,13.60
2019,04,27,15,34,13.50
2019,04,27,15,35,13.40
2019,04,27,15,36,13.30
2019,04,27,15,37,13.20
2019,04,27,15,38,13.10
2019,04,27,15,39,13.00
2019,04,27,15,40,12.90
2019,04,27,15,41,12.80
2019,04,27,15,42,12.70
2019,04,27,15,43,12.60
2019,04,27,15,44,12.50
2019,04,27,15,45,12.50
2019,04,27,15,46,12.50
2019,04,27,15,47,12.60
2019,04,27,15,48,12.60
2019,04,27,15,49,12.70
2019,04,27,15,50,12.70
2019,04,27,15,51,12.80
2019,04,27,15,52,12.80
2019,04,27,15,53,12.80
2019,04,27,15,54,12.80
2019,04,27,15,55,12.90
2019,04,27,15,56,12.90
2019,04,27,15,57,12.90
2019,04,27,15,58,12.90
2019,04,27,15,59,13.00
2019,04,27,16,00,13.10
2019,04,27,16,01,13.20
2019,04,27,16,02,13.40
2019,04,27,16,03,13.50
2019,04,27,16,04,13.60
2019,04,27,16,05,13.60
2019,04,27,16,06,13.60
2019,04,27,16,07,13.50
2019,04,27,16,08,13.40
2019,04,27,16,09,13.30
2019,04,27,16,10,13.20
2019,04,27,16,11,13.10
2019,04,27,16,12,13.10
2019,04,27,16,13,13.10
2019,04,27,16,14,13.00
2019,04,27,16,15,12.90
2019,04,27,16,16,12.90
2019,04,27,16,17,12.90
2019,04,27,16,18,12.90
2019,04,27,16,19,13.00
2019,04,27,16,20,13.10
2019,04,27,16,21,13.20
2019,04,27,16,22,13.20
2019,04,27,16,23,13.30
2019,04,27,16,24,13.30
2019,04,27,16,25,13.40
2019,04,27,16,26,13.40
2019,04,27,16,27,13.50
2019,04,27,16,28,13.60
2019,04,27,16,29,13.70
2019,04,27,16,30,13.80
2019,04,27,16,31,13.80
2019,04,27,16,32,13.90
2019,04,27,16,33,13.90
2019,04,27,16,34,13.90
2019,04,27,16,35,13.90
2019,04,27,16,36,13.90
2019,04,27,16,37,13.90
2019,04,27,16,38,13.80
2019,04,27,16,39,13.80
2019,04,27,16,40,13.80
2019,04,27,16,41,13.80
2019,04,27,16,42,13.80
2019,04,27,16,43,13.80
2019,04,27,16,44,13.80
2019,04,27,16,45,14.00
2019,04,27,16,46,14.00
2019,04,27,16,47,14.00
2019,04,27,16,48,14.00
2019,04,27,16,49,14.10
2019,04,27,16,50,14.10
2019,04,27,16,51,14.10
2019,04,27,16,52,14.10
2019,04,27,16,53,14.00
2019,04,27,16,54,13.90
2019,04,27,16,55,13.80
2019,04,27,16,56,13.60
2019,04,27,16,57,13.40
2019,04,27,16,58,13.30
2019,04,27,16,59,13.20
2019,04,27,17,00,13.20
2019,04,27,17,01,13.20
2019,04,27,17,02,13.30
2019,04,27,17,03,13.30
2019,04,27,17,04,13.30
2019,04,27,17,05,13.30
2019,04,27,17,06,13.30
2019,04,27,17,07,13.30
2019,04,27,17,08,13.30
2019,04,27,17,09,13.30
2019,04,27,17,10,13.30
2019,04,27,17,11,13.30
2019,04,27,17,12,13.30
2019,04,27,17,13,13.30
2019,04,27,17,14,13.30
2019,04,27,17,15,13.40
2019,04,27,17,16,13.50
2019,04,27,17,17,13.50
2019,04,27,17,18,13.60
2019,04,27,17,19,13.60
2019,04,27,17,20,13.60
2019,04,27,17,21,13.60
2019,04,27,17,22,13.60
2019,04,27,17,23,13.60
2019,04,27,17,24,13.60
2019,04,27,17,25,13.70
2019,04,27,17,26,13.80
2019,04,27,17,27,13.80
2019,04,27,17,28,13.90
2019,04,27,17,29,13.90
2019,04,27,17,30,13.90
2019,04,27,17,31,13.90
2019,04,27,17,32,13.90
2019,04,27,17,33,13.80
2019,04,27,17,34,13.70
2019,04,27,17,35,13.70
2019,04,27,17,36,13.70
2019,04,27,17,37,13.70
2019,04,27,17,38,13.70
2019,04,27,17,39,13.70
2019,04,27,17,40,13.70
2019,04,27,17,41,13.70
2019,04,27,17,42,13.60
2019,04,27,17,43,13.60
2019,04,27,17,44,13.60
2019,04,27,17,45,13.60
2019,04,27,17,46,13.70